Powrót do katalogu

MAGION 4

LostNaukaHEO
NORAD 23646·PAYLOAD·🇨🇿 Czechia

Wystrzelony Aug 2, 1995 z Plesetsk Cosmodrome

Loading…

Następne Przeloty (najbliższe 24 godziny)

TLE

NieaktualneSource: Space-Track

Epoka: Apr 9, 1997, 00:00 UTC

1 23646U 95039F   97099.00000000 -.00001302 +00000-0 +10000-3 0  9992
2 23646 070.3422 248.3458 7715642 328.5234 102.6257 00.26402863001616

Śledź MAGION 4 w czasie rzeczywistym z AllMySat

Download on the App Store